TimeCST,TemperatureF,Dew PointF,Humidity,Sea Level PressureIn,VisibilityMPH,Wind Direction,Wind SpeedMPH,Gust SpeedMPH,PrecipitationIn,Events,Conditions,WindDirDegrees,DateUTC
12:53 AM,39.9,30.0,68,30.29,10.0,Calm,Calm,-,N/A,,Scattered Clouds,0,2013-01-22 06:53:00
1:53 AM,39.9,30.0,68,30.30,10.0,ENE,4.6,-,N/A,,Overcast,60,2013-01-22 07:53:00
2:53 AM,39.0,28.9,67,30.31,10.0,East,5.8,-,N/A,,Overcast,90,2013-01-22 08:53:00
3:53 AM,39.0,28.0,65,30.32,10.0,ENE,5.8,-,N/A,,Overcast,70,2013-01-22 09:53:00
4:53 AM,37.0,27.0,67,30.31,10.0,East,4.6,-,N/A,,Mostly Cloudy,90,2013-01-22 10:53:00
5:53 AM,36.0,26.1,67,30.33,10.0,East,4.6,-,N/A,,Scattered Clouds,100,2013-01-22 11:53:00
6:53 AM,35.1,25.0,67,30.33,10.0,ESE,4.6,-,N/A,,Clear,120,2013-01-22 12:53:00
7:53 AM,35.1,26.1,70,30.35,10.0,Calm,Calm,-,N/A,,Clear,0,2013-01-22 13:53:00
8:53 AM,39.0,25.0,57,30.37,10.0,ESE,8.1,-,N/A,,Partly Cloudy,120,2013-01-22 14:53:00
9:53 AM,42.1,25.0,51,30.38,10.0,East,6.9,-,N/A,,Partly Cloudy,90,2013-01-22 15:53:00
10:53 AM,46.9,26.1,44,30.36,10.0,ESE,5.8,-,N/A,,Clear,120,2013-01-22 16:53:00
11:53 AM,50.0,30.0,46,30.34,10.0,SSE,6.9,-,N/A,,Clear,150,2013-01-22 17:53:00
12:20 PM,50.0,30.2,47,30.33,10.0,Variable,4.6,-,N/A,,Mostly Cloudy,0,2013-01-22 18:20:00
12:53 PM,50.0,30.9,48,30.31,10.0,South,6.9,-,N/A,,Overcast,170,2013-01-22 18:53:00
1:53 PM,52.0,33.1,49,30.29,10.0,South,4.6,-,N/A,,Overcast,170,2013-01-22 19:53:00
2:18 PM,53.6,33.8,47,30.28,10.0,SSE,5.8,-,N/A,,Mostly Cloudy,150,2013-01-22 20:18:00
2:53 PM,54.0,36.0,51,30.28,10.0,Calm,Calm,-,N/A,,Mostly Cloudy,0,2013-01-22 20:53:00
3:53 PM,55.0,37.0,51,30.27,10.0,Calm,Calm,-,N/A,,Partly Cloudy,0,2013-01-22 21:53:00
4:53 PM,55.0,37.0,51,30.27,10.0,Calm,Calm,-,N/A,,Mostly Cloudy,0,2013-01-22 22:53:00
5:53 PM,54.0,37.0,53,30.27,10.0,Calm,Calm,-,N/A,,Overcast,0,2013-01-22 23:53:00
6:53 PM,52.0,37.9,59,30.27,10.0,ENE,3.5,-,N/A,,Overcast,60,2013-01-23 00:53:00
7:53 PM,50.0,37.0,61,30.28,10.0,ENE,5.8,-,N/A,,Mostly Cloudy,60,2013-01-23 01:53:00
8:53 PM,48.0,36.0,63,30.28,10.0,ESE,4.6,-,N/A,,Mostly Cloudy,120,2013-01-23 02:53:00
9:53 PM,46.0,36.0,68,30.29,10.0,ESE,3.5,-,N/A,,Clear,110,2013-01-23 03:53:00
10:53 PM,46.0,36.0,68,30.29,10.0,SE,3.5,-,N/A,,Clear,140,2013-01-23 04:53:00
11:53 PM,45.0,35.1,68,30.29,10.0,Calm,Calm,-,N/A,,Clear,0,2013-01-23 05:53:00